timestamp,surface_pressure_avg,surface_temp_avg,battery_voltage,lat,long
2020-02-06 00:09:01+00:00,246.4648,0.09,12.73,47.84626,-54.09684
2020-02-06 00:19:01+00:00,243.0531,0.09,12.65,47.84626,-54.09684
2020-02-06 00:29:01+00:00,241.6081,0.1,12.65,47.84626,-54.09684
2020-02-06 00:39:01+00:00,235.3248,0.1,12.65,47.84626,-54.09684
2020-02-06 00:49:01+00:00,230.4431,0.13,12.65,47.84626,-54.09684
2020-02-06 00:59:01+00:00,230.7415,0.23,12.65,47.84626,-54.09684
2020-02-06 01:09:01+00:00,229.2331,0.27,12.65,47.84626,-54.09684
2020-02-06 01:19:01+00:00,223.3714,0.2,12.57,47.84626,-54.09684
2020-02-06 01:29:01+00:00,222.1364,0.2,12.57,47.84626,-54.09684
2020-02-06 01:39:01+00:00,221.7948,0.2,12.57,47.84626,-54.09684
2020-02-06 01:49:01+00:00,215.4064,0.26,12.57,47.84626,-54.09684
2020-02-06 01:59:01+00:00,212.5698,0.3,12.57,47.84626,-54.09684
2020-02-06 02:09:01+00:00,213.0164,0.3,12.57,47.84626,-54.09684
2020-02-06 02:19:01+00:00,208.4631,0.2,12.57,47.84626,-54.09684
2020-02-06 02:29:01+00:00,205.7798,0.2,12.57,47.84626,-54.09684
2020-02-06 02:39:01+00:00,212.3464,0.19,12.57,47.84626,-54.09684
2020-02-06 02:49:01+00:00,214.1848,0.2,12.57,47.84626,-54.09684
2020-02-06 02:59:01+00:00,206.7298,0.2,12.57,47.84626,-54.09684
2020-02-06 03:09:01+00:00,206.0814,0.2,12.57,47.84626,-54.09684
2020-02-06 03:19:01+00:00,215.1531,0.3,12.57,47.84626,-54.09684
2020-02-06 03:29:01+00:00,216.7881,0.39,12.57,47.84626,-54.09684
2020-02-06 03:39:01+00:00,215.2414,0.42,12.57,47.84626,-54.09684
2020-02-06 03:49:01+00:00,222.4631,0.5,12.57,47.84626,-54.09684
2020-02-06 03:59:01+00:00,226.7831,0.5,12.57,47.84626,-54.09684
2020-02-06 04:09:01+00:00,225.5031,0.5,12.57,47.84626,-54.09684
2020-02-06 04:19:01+00:00,223.9915,0.4,12.57,47.84626,-54.09684
2020-02-06 04:29:01+00:00,222.7698,0.47,12.57,47.84626,-54.09684
2020-02-06 04:39:01+00:00,223.0264,0.5,12.57,47.84626,-54.09684
2020-02-06 04:49:01+00:00,227.2697,0.57,12.57,47.84626,-54.09684
2020-02-06 04:59:01+00:00,232.798,0.59,12.57,47.84626,-54.09684
2020-02-06 05:09:01+00:00,233.5915,0.59,12.57,47.84626,-54.09684
2020-02-06 05:19:01+00:00,240.1681,0.59,12.49,47.84626,-54.09684
2020-02-06 05:29:01+00:00,249.5748,0.6,12.49,47.84626,-54.09684
2020-02-06 05:39:01+00:00,256.9531,0.7,12.49,47.84626,-54.09684
2020-02-06 05:49:01+00:00,263.5014,0.7,12.49,47.84626,-54.09684
2020-02-06 05:59:01+00:00,272.7064,0.7,12.49,47.84626,-54.09684
2020-02-06 06:09:01+00:00,281.7431,0.69,12.49,47.84626,-54.09684
2020-02-06 06:19:01+00:00,292.3564,0.7,12.49,47.84626,-54.09684
2020-02-06 06:29:01+00:00,298.2864,0.7,12.49,47.84626,-54.09684
2020-02-06 06:39:01+00:00,303.0264,0.69,12.49,47.84626,-54.09684
2020-02-06 06:49:01+00:00,306.2247,0.7,12.49,47.84626,-54.09684
2020-02-06 06:59:01+00:00,313.5297,0.7,12.49,47.84626,-54.09684
2020-02-06 07:09:01+00:00,319.1312,0.7,12.49,47.84626,-54.09684
2020-02-06 07:19:01+00:00,326.5063,0.7,12.49,47.84626,-54.09684
2020-02-06 07:29:01+00:00,329.8313,0.71,12.49,47.84626,-54.09684
2020-02-06 07:39:01+00:00,337.4479,0.74,12.49,47.84626,-54.09684
2020-02-06 07:49:01+00:00,344.9479,0.76,12.49,47.84626,-54.09684
2020-02-06 07:59:01+00:00,344.9047,0.78,12.49,47.84626,-54.09684
2020-02-06 08:09:01+00:00,339.1113,0.79,12.49,47.84626,-54.09684
2020-02-06 08:19:01+00:00,346.9079,0.77,12.49,47.84626,-54.09684
2020-02-06 08:29:01+00:00,356.8113,0.7,12.49,47.84626,-54.09684
2020-02-06 08:39:01+00:00,353.8763,0.4,12.49,47.84626,-54.09684
2020-02-06 08:49:01+00:00,346.6996,0.37,12.49,47.84626,-54.09684
2020-02-06 08:59:01+00:00,352.2896,0.47,12.49,47.84626,-54.09684
2020-02-06 09:09:01+00:00,354.6196,0.5,12.49,47.84626,-54.09684
2020-02-06 09:19:01+00:00,348.2613,0.6,12.41,47.84626,-54.09684
2020-02-06 09:29:01+00:00,350.7396,0.6,12.41,47.84626,-54.09684
2020-02-06 09:39:01+00:00,358.473,0.6,12.41,47.84626,-54.09684
2020-02-06 09:49:01+00:00,357.1047,0.5,12.41,47.84626,-54.09684
2020-02-06 09:59:01+00:00,348.3846,0.4,12.41,47.84626,-54.09684
2020-02-06 10:09:01+00:00,347.8746,0.3,12.41,47.84626,-54.09684
2020-02-06 10:19:01+00:00,352.1346,0.3,12.41,47.84626,-54.09684
2020-02-06 10:29:01+00:00,351.9547,0.3,12.41,47.84626,-54.09684
2020-02-06 10:39:01+00:00,345.1996,0.3,12.41,47.84626,-54.09684
2020-02-06 10:49:01+00:00,345.0163,0.3,12.41,47.84626,-54.09684
2020-02-06 10:59:01+00:00,345.708,0.3,12.41,47.84626,-54.09684
2020-02-06 11:09:01+00:00,345.5614,0.3,12.41,47.84626,-54.09684
2020-02-06 11:19:01+00:00,337.7513,0.33,12.49,47.84626,-54.09684
2020-02-06 11:29:01+00:00,332.9713,0.4,12.49,47.84626,-54.09684
2020-02-06 11:39:01+00:00,328.8431,0.4,12.49,47.84626,-54.09684
2020-02-06 11:49:01+00:00,324.0963,0.4,12.49,47.84626,-54.09684
2020-02-06 11:59:01+00:00,313.6164,0.3,12.49,47.84626,-54.09684
2020-02-06 12:09:01+00:00,306.5646,0.2,12.49,47.84626,-54.09684
2020-02-06 12:19:01+00:00,306.168,0.2,14.24,47.84626,-54.09684
2020-02-06 12:29:01+00:00,303.498,0.3,14.24,47.84626,-54.09684
2020-02-06 12:39:01+00:00,296.6197,0.18,14.24,47.84626,-54.09684
2020-02-06 12:49:01+00:00,294.5597,0.46,14.24,47.84626,-54.09684
2020-02-06 12:59:01+00:00,289.3196,0.65,14.24,47.84626,-54.09684
2020-02-06 13:09:01+00:00,277.7048,0.66,14.24,47.84626,-54.09684
2020-02-06 13:19:01+00:00,270.5364,0.6,14.64,47.84626,-54.09684
2020-02-06 13:29:01+00:00,271.7431,0.59,14.64,47.84626,-54.09684
2020-02-06 13:39:01+00:00,269.3781,0.6,14.64,47.84626,-54.09684
2020-02-06 13:49:01+00:00,265.6598,0.67,14.64,47.84626,-54.09684
2020-02-06 13:59:01+00:00,259.7314,0.7,14.64,47.84626,-54.09684
2020-02-06 14:09:01+00:00,256.9281,0.7,14.64,47.84626,-54.09684
2020-02-06 14:19:01+00:00,254.3431,0.7,14.8,47.84626,-54.09684
2020-02-06 14:29:01+00:00,248.4014,0.7,14.8,47.84626,-54.09684
2020-02-06 14:39:01+00:00,243.1281,0.7,14.8,47.84626,-54.09684
2020-02-06 14:49:01+00:00,243.0931,0.7,14.8,47.84626,-54.09684
2020-02-06 14:59:01+00:00,236.3147,0.7,14.8,47.84626,-54.09684
2020-02-06 15:09:01+00:00,230.6297,0.7,14.8,47.84626,-54.09684
2020-02-06 15:19:01+00:00,235.8065,0.7,14.72,47.84626,-54.09684
2020-02-06 15:29:01+00:00,242.6348,0.7,14.72,47.84626,-54.09684
2020-02-06 15:39:01+00:00,241.6981,0.7,14.72,47.84626,-54.09684
2020-02-06 15:49:01+00:00,239.9281,0.7,14.72,47.84626,-54.09684
2020-02-06 15:59:01+00:00,244.6232,0.7,14.72,47.84626,-54.09684
2020-02-06 16:09:01+00:00,246.2065,0.7,14.72,47.84626,-54.09684
2020-02-06 16:19:01+00:00,239.7214,0.73,14.56,47.84626,-54.09684
2020-02-06 16:29:01+00:00,234.5731,0.75,14.56,47.84626,-54.09684
2020-02-06 16:39:01+00:00,239.7814,0.76,14.56,47.84626,-54.09684
2020-02-06 16:49:01+00:00,241.7664,0.78,14.56,47.84626,-54.09684
2020-02-06 16:59:01+00:00,232.9348,0.79,14.56,47.84626,-54.09684
2020-02-06 17:09:01+00:00,234.7764,0.78,14.56,47.84626,-54.09684
2020-02-06 17:19:01+00:00,244.9431,0.78,14.4,47.84626,-54.09684
2020-02-06 17:29:01+00:00,245.3848,0.79,14.4,47.84626,-54.09684
2020-02-06 17:39:01+00:00,245.3781,0.8,14.4,47.84626,-54.09684
2020-02-06 17:49:01+00:00,247.6465,0.8,14.4,47.84626,-54.09684
2020-02-06 17:59:01+00:00,247.4614,0.8,14.4,47.84626,-54.09684
2020-02-06 18:09:01+00:00,248.1564,0.79,14.4,47.84626,-54.09684
2020-02-06 18:19:01+00:00,252.5414,0.6,14.16,47.84626,-54.09684
2020-02-06 18:29:01+00:00,260.9197,0.57,14.16,47.84626,-54.09684
2020-02-06 18:39:01+00:00,274.4714,0.54,14.16,47.84626,-54.09684
2020-02-06 18:49:01+00:00,288.7914,0.5,14.16,47.84626,-54.09684
2020-02-06 18:59:01+00:00,294.0114,0.5,14.16,47.84626,-54.09684
2020-02-06 19:09:01+00:00,297.1714,0.53,14.16,47.84626,-54.09684
2020-02-06 19:19:01+00:00,299.9647,0.66,14.08,47.84626,-54.09684
2020-02-06 19:29:01+00:00,307.2229,0.7,14.08,47.84626,-54.09684
2020-02-06 19:39:01+00:00,310.9863,0.7,14.08,47.84626,-54.09684
2020-02-06 19:49:01+00:00,316.153,0.7,14.08,47.84626,-54.09684
2020-02-06 19:59:01+00:00,321.273,0.7,14.08,47.84626,-54.09684
2020-02-06 20:09:01+00:00,329.92800000000005,0.7,14.08,47.84626,-54.09684
2020-02-06 20:19:01+00:00,337.8796,0.7,13.68,47.84626,-54.09684
2020-02-06 20:29:01+00:00,343.4313,0.7,13.68,47.84626,-54.09684
2020-02-06 20:39:01+00:00,346.1213,0.7,13.68,47.84626,-54.09684
2020-02-06 20:49:01+00:00,345.1063,0.7,13.68,47.84626,-54.09684
2020-02-06 20:59:01+00:00,344.8246,0.7,13.68,47.84626,-54.09684
2020-02-06 21:09:01+00:00,343.3780000000001,0.7,13.68,47.84626,-54.09684
2020-02-06 21:19:01+00:00,341.6996,0.69,13.21,47.84626,-54.09684
2020-02-06 21:29:01+00:00,341.9529,0.6,13.21,47.84626,-54.09684
2020-02-06 21:39:01+00:00,341.8196,0.46,13.21,47.84626,-54.09684
2020-02-06 21:49:01+00:00,339.8863,0.43,13.21,47.84626,-54.09684
2020-02-06 21:59:01+00:00,343.8529,0.5,13.21,47.84626,-54.09684
2020-02-06 22:09:01+00:00,352.8562,0.5,13.21,47.84626,-54.09684
2020-02-06 22:19:01+00:00,358.6813,0.5,12.81,47.84626,-54.09684
2020-02-06 22:29:01+00:00,349.9213,0.4,12.81,47.84626,-54.09684
2020-02-06 22:39:01+00:00,341.6247,0.27,12.81,47.84626,-54.09684
2020-02-06 22:49:01+00:00,340.1797,0.24,12.81,47.84626,-54.09684
2020-02-06 22:59:01+00:00,330.9613,0.28,12.81,47.84626,-54.09684
2020-02-06 23:09:01+00:00,317.1314,0.22,12.81,47.84626,-54.09684
2020-02-06 23:19:01+00:00,316.583,0.24,12.65,47.84626,-54.09684
2020-02-06 23:29:01+00:00,322.8997,0.29,12.65,47.84626,-54.09684
2020-02-06 23:39:01+00:00,320.463,0.29,12.65,47.84626,-54.09684
2020-02-06 23:49:01+00:00,314.073,0.2,12.65,47.84626,-54.09684
2020-02-06 23:59:01+00:00,311.3179,0.2,12.65,47.84626,-54.09684
